User: anonymous   Login
Location: Unspecified
(0.0000°N, 0.0000°E)
Time: 23:06:41
(UTC+00:00)
Language:

OBJECT H - Orbit

View from above orbital plane
View from above orbital plane
View from above satellite
View from above satellite

Ground track
Ground track

The orbit data is extracted from the following two-line orbital elements,

1 42832U 17042H   18344.69126940  .00000106  00000-0  16139-4 0  9991
2 42832  97.5823 240.3779 0013291 336.7059  23.3556 14.91070910 76634
Epoch (UTC): 10 December 2018 16:35:25
Eccentricity: 0.0013291
inclination: 97.5823°
perigee height: 585 km
apogee height: 604 km
right ascension of ascending node: 240.3779°
argument of perigee: 336.7059°
revolutions per day: 14.91070910
mean anomaly at epoch: 23.3556°
orbit number at epoch: 7663

The dashed part of the orbit path shows where the satellite is in the earth's shadow,  

DLR